Wind_Speed
11 11 10 10 10 9 8 7 6 5 4 4 3 1 1 3 4 6 7 9 10 11 12 14 15 16 17 18 18 19 19 20 20 21 21 21 20 20 20 20 20 20 20 19
11 11 10 11 11 10 9 8 6 5 5 4 3 2 2 3 5 6 8 9 10 11 13 14 15 16 17 17 18 18 19 19 20 20 20 20 20 19 19 19 19 20 19 19
11 12 11 10 11 11 10 8 7 6 5 4 3 3 3 4 6 7 8 9 10 11 12 14 15 16 17 17 18 18 18 19 19 19 19 20 19 19 18 18 18 19 19 19
12 12 11 11 12 11 10 9 8 7 6 5 5 5 5 6 7 8 9 10 11 12 13 14 15 16 17 18 18 19 19 19 19 19 19 19 19 18 18 18 18 18 18 18
13 13 11 11 12 12 11 10 9 8 7 7 6 6 7 8 8 9 10 11 12 13 14 15 16 16 17 18 19 19 19 20 20 19 19 19 19 18 18 17 17 17 17 17
14 14 13 12 13 13 12 11 11 10 9 8 8 9 9 9 10 11 11 12 13 13 14 15 16 17 18 19 20 20 20 21 20 20 20 19 19 18 18 17 17 17 17 17
16 16 14 14 14 14 14 13 12 12 11 11 11 11 12 12 12 13 13 13 14 14 15 16 17 18 19 20 21 22 22 22 21 21 20 20 19 19 18 18 18 18 18 18
18 18 15 16 16 16 15 15 14 14 14 13 13 13 13 14 14 14 14 15 15 15 16 17 18 19 20 21 22 23 23 23 22 22 21 21 20 20 19 19 19 18 18 18
21 20 19 19 18 18 18 18 17 17 17 16 16 15 15 16 15 15 16 16 16 17 17 18 19 21 22 23 23 24 24 24 24 24 23 23 22 21 21 20 20 20 19 19
24 22 22 22 21 20 20 20 20 19 19 18 18 18 18 17 17 17 17 17 18 18 19 20 21 22 23 24 25 25 25 25 25 25 25 24 24 23 23 22 21 20 20 20
26 25 25 25 24 24 23 23 22 21 21 21 20 20 20 19 19 19 19 19 20 20 21 22 23 24 25 26 26 27 27 27 27 26 26 25 25 24 24 23 22 22 21 21
28 27 28 27 27 27 26 25 25 24 24 23 23 22 22 22 21 21 22 22 22 22 23 24 25 25 26 27 27 28 28 28 28 28 27 26 25 25 25 24 24 24 23 23
31 30 31 30 29 29 29 28 28 27 26 26 25 25 24 24 24 24 24 24 24 25 26 26 27 27 28 28 29 29 29 29 29 29 29 28 27 26 26 26 26 25 25 24
34 33 33 32 31 31 31 30 30 29 29 28 28 27 27 27 27 26 26 26 27 27 28 28 28 29 30 30 31 31 31 31 31 31 30 29 28 28 27 27 27 27 27 26
36 36 35 34 34 33 33 32 32 31 31 31 30 30 29 29 29 29 29 29 29 29 30 30 31 31 32 32 32 33 32 32 32 32 32 31 30 29 28 28 27 27 28 28
39 39 38 37 36 36 35 34 34 33 33 33 32 32 32 32 31 31 31 31 31 31 32 32 33 33 34 34 34 34 34 34 34 33 33 32 31 30 29 29 28 28 28 29
43 41 40 39 38 38 38 37 36 36 35 35 34 34 34 34 33 33 33 33 33 34 34 34 35 35 35 36 36 36 36 36 35 34 33 33 32 31 30 30 30 30 30 30
45 43 43 42 41 41 40 39 38 38 37 37 37 37 36 36 36 35 35 36 36 36 36 37 37 37 37 37 38 37 37 37 36 36 35 34 33 32 32 31 32 32 33 33
45 44 44 44 44 43 43 43 42 41 40 40 40 39 39 39 39 38 38 38 38 39 39 39 39 39 40 40 39 39 39 38 37 36 36 35 34 34 33 33 34 34 35 35
45 45 45 45 45 45 45 44 44 44 43 43 43 43 42 42 41 41 41 41 41 41 41 41 41 41 41 41 40 40 40 39 38 38 37 36 35 35 35 35 36 36 37 38
45 46 46 46 46 46 46 46 46 46 45 45 45 45 45 44 44 43 43 43 43 43 43 43 43 43 42 42 41 41 41 40 39 38 37 37 36 37 37 37 38 39 40 40
45 45 46 47 47 47 47 47 47 47 47 47 46 46 46 46 46 46 45 45 45 45 44 44 44 43 43 43 43 42 41 40 39 38 38 37 38 38 39 39 40 41 42 43
45 45 46 46 46 47 47 47 47 47 47 47 47 47 47 47 47 47 47 46 46 46 46 45 45 45 45 44 44 42 41 40 39 39 39 39 39 40 40 41 42 43 44 46
44 45 46 46 46 46 47 47 47 47 47 47 47 47 47 47 47 47 48 48 47 47 47 46 46 46 46 45 43 42 41 40 40 40 40 40 41 41 42 43 44 45 46 48
44 44 44 45 45 46 46 46 46 46 47 47 46 47 47 47 47 47 47 47 47 47 47 47 46 46 45 44 43 42 41 41 41 41 41 42 42 43 43 44 46 47 48 49
43 43 43 44 45 45 46 46 46 46 46 46 46 46 46 46 46 46 46 46 46 46 46 46 46 45 44 43 42 41 41 41 41 42 42 43 43 44 44 46 47 48 49 50
42 43 43 43 44 45 46 46 46 46 46 46 46 46 46 46 46 46 46 45 45 45 45 45 44 44 43 42 42 41 41 41 42 42 43 43 43 44 45 46 47 48 49 50
Wind_Direction
226 223 217 213 209 205 204 204 202 192 186 187 193 203 344 355 354 353 353 353 355 356 356 357 358 359 360 0 0 1 3 4 5 6 7 9 11 14 16 18 19 20 21 21
223 224 219 214 212 211 208 204 202 196 183 190 205 236 303 332 340 341 342 345 347 349 351 353 353 354 355 356 357 358 359 0 2 3 5 6 8 10 12 14 15 16 17 18
223 223 215 209 210 211 211 209 209 207 208 213 231 260 292 311 321 326 330 334 339 341 344 347 347 349 350 351 352 354 355 356 357 359 0 2 3 5 6 8 9 11 12 14
225 224 218 212 214 213 214 216 217 218 222 230 246 267 287 301 309 315 321 326 330 333 336 340 342 344 346 347 348 349 350 351 351 352 354 356 357 358 0 3 4 6 7 8
225 225 216 217 221 222 221 224 227 227 232 242 255 270 283 294 302 308 313 318 321 325 329 333 336 339 341 342 344 344 344 345 345 346 347 349 350 351 353 355 357 359 1 3
226 227 218 219 225 227 227 229 232 235 240 248 259 272 282 291 296 301 306 310 314 318 323 328 331 334 335 336 338 339 338 338 338 339 340 341 342 343 344 345 347 349 352 354
232 232 226 227 231 232 234 232 237 241 247 255 263 271 280 287 292 296 301 305 309 313 318 322 325 328 330 332 333 334 334 334 334 334 334 335 335 335 336 337 338 340 342 344
237 237 236 236 235 237 238 240 244 247 252 258 264 270 276 282 288 292 296 301 305 309 314 317 320 322 325 327 329 330 330 330 329 329 329 329 329 329 329 330 331 332 332 334
241 242 244 243 242 241 242 245 248 252 256 260 265 270 275 280 284 288 293 298 302 305 309 312 315 318 321 323 324 325 326 326 325 325 324 324 324 324 323 322 322 323 324 325
245 245 246 247 247 247 247 249 252 255 258 262 266 270 274 278 281 285 290 295 299 302 304 307 310 313 315 317 319 321 321 322 322 321 321 320 320 319 319 317 317 317 318 319
250 249 249 249 250 250 251 252 255 257 259 263 266 270 273 276 279 283 287 291 294 297 300 303 305 308 311 312 314 317 318 318 319 319 318 316 316 315 314 314 313 313 314 315
252 251 251 250 251 253 253 254 257 259 261 263 266 269 272 274 277 280 284 288 291 294 297 300 303 305 308 310 312 313 314 315 316 317 315 313 311 310 310 309 309 310 310 310
253 252 252 252 254 255 256 257 258 260 261 263 265 268 270 272 275 278 281 284 288 291 294 298 300 302 305 307 309 310 311 311 313 314 313 311 309 307 306 306 306 307 307 307
253 253 253 253 255 255 256 257 258 260 261 262 264 267 269 271 273 276 279 282 285 288 291 294 297 299 302 304 307 308 309 310 311 311 311 309 306 305 304 303 304 304 305 305
252 253 254 253 254 255 255 256 257 258 260 261 263 265 267 269 272 274 277 280 283 286 289 292 295 297 299 302 304 306 307 308 309 309 308 307 305 303 301 301 301 301 301 301
250 251 252 253 254 255 255 256 257 258 259 260 262 264 266 268 271 273 276 279 282 284 287 290 292 295 297 299 301 303 304 305 306 306 306 305 303 300 299 299 299 299 298 298
249 250 251 252 253 254 255 255 256 257 258 260 261 263 265 268 270 272 275 278 280 283 285 288 290 293 295 297 299 300 302 303 303 303 303 302 301 299 297 297 297 297 297 297
250 250 250 251 251 252 254 255 256 256 257 259 260 262 264 267 269 272 274 277 279 282 284 286 289 291 293 295 297 298 299 300 301 300 300 300 298 296 295 294 295 295 296 296
249 250 250 251 251 252 253 254 255 256 257 259 260 262 264 266 269 271 274 276 278 281 283 285 287 290 292 294 295 296 297 298 298 298 298 297 295 294 293 292 293 294 295 296
248 248 249 250 251 252 253 254 255 256 257 259 260 262 264 266 268 270 273 275 277 280 282 284 287 289 291 292 293 294 295 295 295 296 296 295 293 292 292 292 292 293 294 295
248 248 249 250 250 251 252 253 254 255 256 258 260 261 263 265 268 270 272 274 276 278 281 283 285 287 289 291 292 293 293 293 293 293 294 293 292 292 291 291 292 293 294 295
247 247 247 248 249 250 251 252 253 255 256 258 260 262 264 266 268 269 271 273 275 277 280 282 284 286 288 289 291 291 291 291 290 291 291 291 291 291 291 292 293 294 295 295
248 247 247 247 248 249 250 251 252 254 256 257 259 261 263 265 267 269 270 272 275 277 279 281 282 284 287 289 289 289 289 288 288 289 289 289 289 290 292 292 293 294 295 296
248 248 248 248 248 248 249 251 252 254 255 257 259 261 262 264 266 267 269 272 274 276 277 279 281 283 285 287 287 287 286 286 287 287 287 288 289 291 292 293 294 295 296 298
250 250 249 248 249 249 249 250 252 254 255 257 258 260 261 263 265 267 269 271 272 274 276 278 280 282 284 284 284 284 284 284 285 286 287 288 290 291 292 293 295 297 298 299
251 251 250 250 250 249 250 251 252 253 254 256 257 259 261 262 264 266 268 270 272 273 275 277 279 280 281 281 282 282 283 283 284 285 287 288 290 291 293 295 297 298 299 300
250 250 250 249 249 250 250 250 252 253 254 255 256 258 259 261 262 264 266 268 269 271 273 275 277 278 279 279 280 281 282 283 284 286 287 289 290 292 295 297 298 300 301 301
Height
5840 5841 5842 5843 5843 5844 5845 5846 5847 5848 5848 5849 5849 5849 5848 5847 5846 5845 5843 5842 5839 5837 5834 5831 5828 5825 5821 5818 5814 5810 5806 5802 5799 5794 5790 5786 5782 5778 5774 5770 5766 5762 5758 5755
5838 5839 5840 5841 5842 5842 5843 5844 5845 5846 5847 5847 5847 5847 5847 5846 5845 5844 5842 5841 5839 5836 5834 5831 5828 5824 5821 5818 5814 5810 5807 5803 5799 5795 5791 5787 5783 5779 5775 5772 5768 5764 5760 5756
5836 5836 5838 5839 5840 5841 5842 5843 5844 5845 5846 5845 5846 5845 5845 5845 5844 5843 5841 5840 5837 5835 5833 5830 5827 5824 5820 5817 5813 5810 5806 5803 5799 5795 5791 5788 5784 5780 5776 5773 5769 5765 5762 5758
5834 5836 5836 5840 5838 5839 5840 5841 5842 5843 5843 5844 5844 5844 5843 5843 5842 5841 5839 5838 5836 5833 5831 5828 5825 5822 5819 5816 5812 5809 5805 5802 5798 5795 5791 5787 5784 5780 5776 5773 5770 5766 5763 5759
5832 5832 5834 5836 5837 5837 5838 5839 5840 5840 5841 5841 5841 5841 5841 5840 5839 5838 5837 5835 5833 5831 5829 5826 5824 5821 5818 5814 5811 5808 5804 5801 5797 5794 5790 5787 5783 5780 5776 5773 5770 5766 5763 5760
5829 5830 5832 5835 5834 5834 5836 5837 5837 5838 5838 5839 5839 5839 5839 5837 5836 5835 5834 5832 5831 5829 5826 5824 5821 5818 5815 5812 5809 5806 5802 5799 5796 5792 5789 5785 5782 5779 5775 5772 5769 5766 5763 5759
5825 5826 5829 5831 5831 5832 5834 5835 5834 5834 5835 5835 5835 5835 5835 5834 5833 5832 5830 5829 5827 5825 5823 5821 5818 5816 5813 5810 5807 5803 5800 5796 5793 5790 5786 5783 5780 5777 5774 5770 5767 5764 5761 5758
5821 5823 5827 5826 5827 5828 5829 5829 5830 5830 5831 5831 5831 5831 5831 5830 5829 5828 5827 5825 5823 5822 5820 5817 5815 5812 5810 5807 5804 5800 5797 5793 5790 5787 5783 5780 5777 5774 5771 5768 5765 5762 5759 5756
5817 5820 5820 5821 5822 5823 5824 5825 5825 5825 5826 5826 5826 5826 5826 5825 5824 5823 5822 5821 5819 5817 5816 5813 5811 5808 5806 5803 5800 5796 5793 5790 5786 5783 5780 5777 5773 5770 5768 5765 5762 5759 5757 5754
5811 5813 5814 5814 5815 5817 5818 5819 5819 5820 5820 5821 5821 5821 5820 5820 5819 5818 5817 5816 5814 5813 5811 5809 5807 5804 5801 5798 5795 5792 5789 5786 5782 5779 5775 5772 5769 5766 5763 5761 5758 5756 5753 5751
5804 5806 5807 5808 5809 5810 5811 5812 5813 5813 5814 5814 5814 5814 5814 5814 5813 5812 5811 5810 5809 5807 5806 5804 5802 5799 5796 5794 5791 5788 5784 5781 5777 5774 5771 5768 5765 5762 5759 5756 5753 5751 5749 5746
5796 5798 5798 5800 5801 5802 5803 5804 5805 5806 5807 5807 5807 5808 5807 5807 5807 5806 5805 5804 5803 5801 5800 5798 5795 5793 5790 5788 5785 5782 5778 5775 5772 5769 5766 5763 5760 5756 5753 5751 5748 5745 5743 5741
5787 5788 5789 5791 5792 5793 5794 5796 5797 5798 5799 5799 5800 5800 5800 5800 5800 5799 5798 5797 5796 5794 5793 5791 5789 5786 5784 5781 5778 5775 5772 5769 5766 5763 5759 5756 5753 5751 5747 5744 5741 5739 5737 5734
5776 5778 5779 5782 5783 5784 5785 5787 5788 5789 5790 5791 5791 5791 5792 5792 5792 5791 5791 5790 5788 5787 5785 5784 5781 5779 5777 5774 5771 5768 5765 5762 5759 5756 5752 5749 5746 5744 5741 5738 5735 5732 5729 5727
5766 5767 5769 5771 5773 5774 5776 5777 5778 5779 5780 5781 5782 5782 5782 5783 5783 5782 5782 5781 5780 5779 5777 5775 5773 5771 5769 5766 5763 5760 5757 5754 5751 5748 5745 5742 5739 5736 5733 5731 5728 5726 5723 5720
5754 5755 5757 5759 5761 5763 5765 5766 5768 5769 5770 5771 5772 5772 5773 5773 5773 5773 5772 5772 5771 5769 5768 5766 5764 5762 5760 5757 5755 5752 5749 5746 5743 5740 5736 5733 5730 5728 5725 5723 5720 5718 5715 5713
5740 5743 5745 5748 5750 5751 5753 5755 5756 5758 5759 5760 5761 5761 5762 5762 5762 5762 5762 5762 5761 5760 5758 5757 5755 5753 5750 5748 5745 5743 5740 5737 5734 5731 5728 5725 5722 5719 5717 5714 5712 5709 5707 5704
5727 5730 5732 5735 5737 5739 5740 5742 5744 5746 5747 5748 5749 5750 5750 5751 5751 5751 5751 5751 5750 5749 5748 5746 5744 5742 5740 5738 5735 5733 5730 5727 5724 5721 5718 5715 5713 5710 5708 5705 5703 5700 5697 5695
5712 5715 5718 5720 5723 5725 5727 5729 5731 5733 5734 5736 5737 5738 5738 5739 5739 5740 5740 5739 5738 5738 5736 5735 5733 5731 5729 5727 5724 5722 5719 5716 5713 5711 5708 5705 5702 5700 5698 5695 5693 5690 5687 5684
5696 5699 5702 5705 5708 5711 5713 5715 5717 5719 5721 5722 5724 5725 5726 5726 5727 5727 5727 5727 5726 5725 5724 5723 5721 5719 5717 5715 5713 5710 5708 5705 5702 5700 5697 5694 5692 5689 5687 5684 5682 5679 5676 5673
5681 5684 5687 5690 5693 5696 5698 5700 5702 5704 5706 5708 5710 5711 5712 5713 5714 5714 5714 5714 5713 5713 5712 5710 5709 5707 5705 5703 5700 5698 5696 5693 5691 5688 5685 5683 5680 5678 5675 5673 5670 5667 5664 5661
5665 5668 5671 5674 5677 5680 5682 5685 5687 5689 5691 5693 5695 5697 5698 5699 5700 5700 5700 5700 5700 5699 5698 5697 5695 5694 5692 5690 5688 5685 5683 5681 5678 5676 5674 5671 5669 5666 5664 5661 5658 5655 5652 5648
5649 5652 5655 5658 5661 5664 5666 5669 5671 5674 5676 5678 5680 5682 5683 5684 5685 5685 5686 5685 5685 5684 5684 5683 5682 5680 5678 5676 5674 5672 5670 5668 5666 5664 5662 5659 5657 5654 5651 5648 5645 5642 5638 5634
5633 5636 5639 5642 5645 5648 5651 5653 5656 5658 5660 5662 5664 5666 5667 5668 5669 5670 5670 5670 5670 5670 5669 5668 5667 5666 5664 5663 5661 5659 5657 5655 5653 5651 5649 5647 5644 5641 5638 5635 5632 5628 5624 5620
5618 5621 5624 5626 5629 5632 5635 5637 5640 5642 5644 5646 5648 5650 5651 5653 5654 5654 5655 5655 5655 5655 5654 5654 5653 5652 5650 5649 5647 5645 5644 5642 5640 5638 5636 5633 5631 5628 5624 5621 5618 5614 5609 5605
5603 5606 5609 5612 5614 5617 5619 5622 5624 5627 5629 5631 5633 5634 5636 5637 5638 5639 5639 5640 5640 5640 5640 5639 5638 5637 5636 5635 5633 5632 5630 5629 5627 5625 5622 5620 5617 5614 5611 5607 5603 5599 5594 5589
5589 5592 5594 5597 5600 5602 5604 5606 5609 5611 5613 5615 5617 5619 5621 5622 5623 5624 5625 5625 5625 5625 5625 5624 5624 5623 5622 5621 5620 5618 5617 5615 5613 5611 5609 5606 5603 5600 5596 5593 5588 5584 5579 5574